THORAD AGENA D DEB, 42503

Orbit data source: Space-Track

THORAD AGENA D DEB, 42503 is space debris in SSO originally from a launch on Wed, 08 Apr 1970 UTC launched from the Air Force Western Test Range (AFWTR). Debris objects in space refer to the collection of defunct objects orbiting the Earth. Examples of debris include non-operational satellites, rocket bodies, and fragments generated from explosions, collisions, or faulty payload assembly.

Loading next visibility...
Identifier
42503, 1970-025RH
Orbit
SSO
Country
Flag of USUS
Related business
Manufacturer
Unknown
Mission
Spacecraft
Bus & Motor
Unknown
Mass
Unknown
Launch date (UTC)
1970-04-08 (56 years ago)
Launch vehicle
Unknown
Launch site
Air Force Western Test Range (AFWTR)
Object type
Payload
Rocket body
Debris
Shape & HBR
Unknown shape, 0.1 m
Radar Cross Section
Small (<0.1 m²)

Expand to show TLE details & history
Last TLE update: 4 days ago

TLE from 4 days ago
0 THORAD AGENA D DEB
1 42503U 70025RH  26119.27878583  .00000907  00000-0  81855-3 0  9991
2 42503  99.9443 134.7814 0014033 254.5567 105.4038 13.86909221627587
Epoch: 2026-04-29T06:41Z
TLE epoch observation values (Epoch: 2026-04-29T06:41:27.095Z)
Latitude
0.00005°
Longitude
177.17646°
Altitude
945.051 km
Speed
7.378 km/s
True Right ascension
08h 59m 07s
True Declination
0° 00' 00"
Sunlit
Object was in daylight at epoch
Visualization orbit readout
Latitude
Unknown
Longitude
Unknown
Altitude
Unknown
Speed
Unknown
Apparent Right ascension
Unknown
Apparent Declination
Unknown
Sunlit
N/A
Visualization observer readout
Local Sidereal Time
13:00:49
Azimuth
Unknown
Elevation
Unknown
Doppler factor
Unknown
Orbital elements
Apogee altitude
947.013 km
Perigee altitude
926.483 km
Semi-major axis
7,314.885 km
Eccentricity
0.0014
Inclination
99.9443°
RAAN
134.7814°
Arg. of periapsis
254.5567°
True anomaly
105.55876°
Mean anomaly
105.4038°
Eccentric anomaly
105.48129°
Mean motion
3.46922 °/min
Orbital period
103.77 mins
BSTAR
0.00081855
Loading maneuver chart data...
Computing Atmospheric mass density...

Documentation

Showing up to 5 results
|